| time (UTC) | temp C | wind direction | speed KPH | gust KPH | rain 1hr cm | rain 24hr cm | rain mn cm | humidity % | barometer mb |
| 20260503072502 | 12 | 183 | 4.8 | 9.7 | 0.00 | 2.21 | 0.81 | 98 | 1013.5 |
| 20260503072002 | 12 | 185 | 4.8 | 6.4 | 0.00 | 2.26 | 0.00 | 98 | 1013.4 |
| 20260503071523 | 12 | 194 | 4.8 | 6.4 | 0.00 | 2.26 | 0.00 | 98 | 1013.3 |
| 20260503071002 | 12 | 189 | 4.8 | 9.7 | 0.00 | 2.26 | 0.00 | 98 | 1013.3 |
| 20260503070523 | 12 | 190 | 4.8 | 9.7 | 0.00 | 2.26 | 0.00 | 98 | 1013.4 |
| 20260503055002 | 12 | 160 | 1.6 | 4.8 | 0.00 | 2.41 | 0.00 | 95 | 1013.1 |
| 20260503054502 | 12 | 144 | 1.6 | 4.8 | 0.00 | 2.41 | 0.00 | 95 | 1013.0 |
| 20260503054002 | 12 | 131 | 1.6 | 3.2 | 0.00 | 2.41 | 0.00 | 95 | 1013.0 |
| 20260503053502 | 12 | 121 | 1.6 | 4.8 | 0.00 | 2.41 | 0.00 | 95 | 1013.0 |
| 20260503053023 | 12 | 109 | 1.6 | 4.8 | 0.00 | 2.41 | 0.00 | 96 | 1012.9 |
| 20260503052502 | 12 | 110 | 1.6 | 3.2 | 0.00 | 2.41 | 0.00 | 96 | 1012.9 |
| 20260503052002 | 12 | 118 | 1.6 | 3.2 | 0.00 | 2.41 | 0.00 | 96 | 1013.3 |
| 20260503051523 | 12 | 107 | 0.0 | 3.2 | 0.00 | 2.41 | 0.00 | 96 | 1013.1 |
| 20260503051002 | 12 | 85 | 0.0 | 1.6 | 0.00 | 2.41 | 0.00 | 96 | 1013.0 |
| 20260503050502 | 12 | 73 | 0.0 | 3.2 | 0.00 | 2.41 | 0.00 | 96 | 1013.2 |
| 20260503050002 | 12 | 70 | 1.6 | 3.2 | 0.00 | 2.41 | 0.00 | 96 | 1013.0 |
| 20260503045502 | 12 | 63 | 1.6 | 3.2 | 0.00 | 2.41 | 0.00 | 96 | 1013.1 |
| 20260503045002 | 12 | 45 | 0.0 | 1.6 | 0.00 | 2.41 | 0.00 | 96 | 1012.9 |
| 20260503044523 | 12 | 41 | 0.0 | 1.6 | 0.00 | 2.41 | 0.00 | 96 | 1013.3 |
| 20260503044023 | 12 | 47 | 0.0 | 1.6 | 0.00 | 2.41 | 0.00 | 96 | 1013.2 |
| 20260503043523 | 12 | 46 | 0.0 | 1.6 | 0.00 | 2.41 | 0.00 | 96 | 1013.1 |
| 20260503043002 | 12 | 60 | 0.0 | 1.6 | 0.00 | 2.41 | 0.00 | 96 | 1013.1 |
| 20260503042523 | 12 | 71 | 1.6 | 6.4 | 0.00 | 2.41 | 0.00 | 96 | 1013.1 |
| 20260503042002 | 12 | 76 | 3.2 | 6.4 | 0.00 | 2.41 | 0.00 | 96 | 1012.9 |
| 20260503041523 | 12 | 78 | 3.2 | 6.4 | 0.00 | 2.41 | 0.00 | 96 | 1013.2 |
| 20260503041023 | 12 | 74 | 3.2 | 6.4 | 0.00 | 2.41 | 0.00 | 96 | 1013.2 |
| 20260503040502 | 12 | 72 | 4.8 | 6.4 | 0.00 | 2.41 | 0.00 | 96 | 1013.1 |
| 20260503040002 | 12 | 72 | 4.8 | 6.4 | 0.00 | 2.41 | 0.00 | 96 | 1013.2 |
| 20260502170503 | 16 | 235 | 14.5 | 27.4 | 0.00 | 2.41 | 2.41 | 74 | 1014.8 |
| 20260502164003 | 16 | 242 | 9.7 | 17.7 | 0.00 | 2.41 | 2.41 | 73 | 1014.7 |
| 20260502163503 | 16 | 237 | 9.7 | 17.7 | 0.00 | 2.41 | 2.41 | 74 | 1014.9 |
| 20260502163003 | 16 | 234 | 9.7 | 17.7 | 0.00 | 2.41 | 2.41 | 73 | 1014.6 |
| 20260502162503 | 16 | 234 | 11.3 | 22.5 | 0.00 | 2.41 | 2.41 | 74 | 1014.8 |
| 20260502162003 | 16 | 234 | 12.9 | 22.5 | 0.00 | 2.41 | 2.41 | 74 | 1015.0 |
| 20260502161503 | 16 | 231 | 12.9 | 25.7 | 0.00 | 2.41 | 2.41 | 73 | 1014.8 |
| 20260502161003 | 16 | 229 | 14.5 | 25.7 | 0.00 | 2.41 | 2.41 | 74 | 1014.9 |
| 20260502160503 | 16 | 224 | 16.1 | 25.7 | 0.00 | 2.41 | 2.41 | 74 | 1014.8 |
| 20260502152003 | 18 | 192 | 14.5 | 29.0 | 0.00 | 2.41 | 2.41 | 68 | 1015.0 |
| 20260502151503 | 18 | 189 | 16.1 | 33.8 | 0.00 | 2.41 | 2.41 | 69 | 1014.8 |
| 20260502151003 | 19 | 191 | 16.1 | 33.8 | 0.00 | 2.41 | 2.41 | 67 | 1015.0 |
| 20260502150503 | 19 | 180 | 14.5 | 29.0 | 0.00 | 2.41 | 2.41 | 68 | 1015.1 |
| 20260502130503 | 13 | 257 | 1.6 | 4.8 | 1.60 | 2.39 | 2.39 | 97 | 1016.6 |
| 20260502123503 | 13 | 243 | 14.5 | 49.9 | 0.66 | 1.45 | 1.45 | 96 | 1017.4 |
| 20260502123003 | 17 | 184 | 6.4 | 14.5 | 0.00 | 0.79 | 0.79 | 78 | 1017.1 |
| 20260502122503 | 17 | 145 | 8.0 | 16.1 | 0.00 | 0.79 | 0.79 | 78 | 1016.5 |
| 20260502122003 | 17 | 148 | 8.0 | 16.1 | 0.00 | 0.79 | 0.79 | 77 | 1016.6 |
| 20260502121524 | 17 | 170 | 8.0 | 17.7 | 0.00 | 0.79 | 0.79 | 78 | 1016.9 |
| 20260502121003 | 17 | 166 | 9.7 | 20.9 | 0.00 | 0.79 | 0.79 | 78 | 1017.1 |
| 20260502120503 | 17 | 158 | 11.3 | 20.9 | 0.00 | 0.79 | 0.79 | 78 | 1016.9 |
| 20260502115503 | 17 | 153 | 8.0 | 17.7 | 0.00 | 0.79 | 0.79 | 78 | 1017.2 |
| 20260502115024 | 17 | 152 | 8.0 | 17.7 | 0.00 | 0.79 | 0.79 | 80 | 1017.2 |
| 20260502114503 | 17 | 165 | 8.0 | 17.7 | 0.00 | 0.79 | 0.79 | 80 | 1017.3 |
| 20260502114003 | 16 | 168 | 8.0 | 17.7 | 0.00 | 0.79 | 0.79 | 80 | 1017.3 |
| 20260502113524 | 17 | 170 | 8.0 | 16.1 | 0.00 | 0.79 | 0.79 | 81 | 1017.5 |
| 20260502113024 | 16 | 177 | 8.0 | 16.1 | 0.00 | 0.79 | 0.79 | 81 | 1017.7 |
| 20260502112503 | 16 | 191 | 8.0 | 16.1 | 0.00 | 0.79 | 0.79 | 81 | 1017.7 |
| 20260502112024 | 16 | 184 | 9.7 | 20.9 | 0.00 | 0.79 | 0.79 | 82 | 1017.6 |
| 20260502111503 | 16 | 187 | 9.7 | 20.9 | 0.00 | 0.79 | 0.79 | 82 | 1017.8 |
| 20260502111003 | 16 | 184 | 8.0 | 16.1 | 0.00 | 0.79 | 0.79 | 84 | 1017.8 |
| 20260502110503 | 16 | 175 | 6.4 | 16.1 | 0.00 | 0.79 | 0.79 | 86 | 1018.1 |
| 20260502110003 | 16 | 180 | 6.4 | 12.9 | 0.00 | 0.79 | 0.79 | 86 | 1017.9 |
| 20260502105503 | 16 | 165 | 6.4 | 14.5 | 0.00 | 0.79 | 0.79 | 88 | 1018.1 |
| 20260502105003 | 15 | 164 | 8.0 | 14.5 | 0.00 | 0.79 | 0.79 | 89 | 1018.0 |
| 20260502104503 | 15 | 172 | 9.7 | 17.7 | 0.00 | 0.79 | 0.79 | 90 | 1018.3 |
| 20260502104003 | 15 | 171 | 9.7 | 17.7 | 0.00 | 0.79 | 0.79 | 91 | 1018.2 |
| 20260502103503 | 15 | 158 | 8.0 | 14.5 | 0.00 | 0.79 | 0.79 | 93 | 1018.4 |
| 20260502103003 | 15 | 142 | 6.4 | 16.1 | 0.00 | 0.79 | 0.79 | 94 | 1018.1 |
| 20260502102503 | 15 | 141 | 6.4 | 16.1 | 0.00 | 0.79 | 0.79 | 94 | 1018.2 |
| 20260502102003 | 15 | 137 | 6.4 | 16.1 | 0.18 | 0.79 | 0.79 | 94 | 1018.4 |
| 20260502101503 | 15 | 132 | 8.0 | 16.1 | 0.18 | 0.79 | 0.79 | 95 | 1018.6 |
| 20260502101003 | 14 | 138 | 8.0 | 16.1 | 0.18 | 0.79 | 0.79 | 95 | 1018.7 |
| 20260502100503 | 14 | 140 | 6.4 | 12.9 | 0.18 | 0.79 | 0.79 | 96 | 1018.7 |
| 20260502091503 | 14 | 136 | 1.6 | 9.7 | 0.05 | 0.61 | 0.61 | 97 | 1018.6 |
| 20260502091003 | 14 | 111 | 1.6 | 4.8 | 0.05 | 0.61 | 0.61 | 97 | 1018.4 |
| 20260502090503 | 14 | 116 | 1.6 | 6.4 | 0.05 | 0.61 | 0.61 | 97 | 1018.2 |